[keps] orb12348.amsat

Ray Hoad ray.hoad at mypbmail.com
Thu Dec 13 18:15:16 PST 2012


SB KEPS @ AMSAT  $ORB12348.O
Orbital Elements  12348.OSCAR

HR AMSAT ORBITAL ELEMENTS FOR OSCAR SATELLITES
FROM WA5QGD FORT WORTH,TX December 13, 2012
BID: ORB12348.O
TO ALL RADIO AMATEURS BT

Satellite: AO-07
Catalog number: 07530
Epoch time:      12347.59022797
Element set:     555
Inclination:      101.4146 deg
RA of node:       337.9916 deg
Eccentricity:    0.0011871
Arg of perigee:   294.4164 deg
Mean anomaly:     065.5671 deg
Mean motion:   12.53593363 rev/day
Decay rate:       -2.7e-07 rev/day^2
Epoch rev:           74240
Checksum:              306

Satellite: FO-29
Catalog number: 24278
Epoch time:      12348.21684859
Element set:       0
Inclination:      098.5839 deg
RA of node:       065.4428 deg
Eccentricity:    0.0349731
Arg of perigee:   285.9635 deg
Mean anomaly:     070.3241 deg
Mean motion:   13.52992679 rev/day
Decay rate:       -5.2e-07 rev/day^2
Epoch rev:           80616
Checksum:              341

Satellite: SO-33
Catalog number: 25509
Epoch time:      12347.57285040
Element set:     388
Inclination:      031.4359 deg
RA of node:       044.0717 deg
Eccentricity:    0.0351828
Arg of perigee:   324.3629 deg
Mean anomaly:     033.3969 deg
Mean motion:   14.28933793 rev/day
Decay rate:       4.52e-06 rev/day^2
Epoch rev:           73818
Checksum:              328

Satellite: RS-22
Catalog number: 27939
Epoch time:      12348.52838038
Element set:     991
Inclination:      097.7985 deg
RA of node:       180.0630 deg
Eccentricity:    0.0014397
Arg of perigee:   058.0842 deg
Mean anomaly:     302.1779 deg
Mean motion:   14.64254724 rev/day
Decay rate:       4.07e-06 rev/day^2
Epoch rev:           49212
Checksum:              329

Satellite: VO-52
Catalog number: 28650
Epoch time:      12348.64336073
Element set:     289
Inclination:      097.5819 deg
RA of node:       010.7042 deg
Eccentricity:    0.0026393
Arg of perigee:   168.6387 deg
Mean anomaly:     191.5450 deg
Mean motion:   14.83439058 rev/day
Decay rate:      1.371e-05 rev/day^2
Epoch rev:           41157
Checksum:              321

Satellite: HO-68
Catalog number: 36122
Epoch time:      12348.74468715
Element set:      97
Inclination:      100.3378 deg
RA of node:       044.2716 deg
Eccentricity:    0.0007787
Arg of perigee:   061.0779 deg
Mean anomaly:     299.1110 deg
Mean motion:   13.16300557 rev/day
Decay rate:       -4.4e-07 rev/day^2
Epoch rev:           14401
Checksum:              293

/EX
SB KEPS @ AMSAT  $ORB12348.D
Orbital Elements  12348.MICROS

HR AMSAT ORBITAL ELEMENTS FOR THE MICROSATS
FROM WA5QGD FORT WORTH,TX December 13, 2012
BID: ORB12348.D
TO ALL RADIO AMATEURS BT

Satellite: UO-11
Catalog number: 14781
Epoch time:      12347.87753899
Element set:      49
Inclination:      097.9303 deg
RA of node:       045.6215 deg
Eccentricity:    0.0009627
Arg of perigee:   166.3147 deg
Mean anomaly:     193.8328 deg
Mean motion:   14.80688388 rev/day
Decay rate:       5.18e-06 rev/day^2
Epoch rev:           54636
Checksum:              351

Satellite: AO-16
Catalog number: 20439
Epoch time:      12347.95035403
Element set:     627
Inclination:      098.4496 deg
RA of node:       286.4932 deg
Eccentricity:    0.0010995
Arg of perigee:   354.9728 deg
Mean anomaly:     005.1346 deg
Mean motion:   14.32120045 rev/day
Decay rate:       1.03e-06 rev/day^2
Epoch rev:           19558
Checksum:              305

Satellite: LO-19
Catalog number: 20442
Epoch time:      12347.87659155
Element set:     559
Inclination:      098.4184 deg
RA of node:       288.8183 deg
Eccentricity:    0.0011752
Arg of perigee:   345.8619 deg
Mean anomaly:     014.2232 deg
Mean motion:   14.32334535 rev/day
Decay rate:        8.2e-07 rev/day^2
Epoch rev:           19576
Checksum:              324

Satellite: AO-27
Catalog number: 22825
Epoch time:      12347.94328658
Element set:     265
Inclination:      098.5960 deg
RA of node:       288.1515 deg
Eccentricity:    0.0009193
Arg of perigee:   112.9077 deg
Mean anomaly:     247.3070 deg
Mean motion:   14.29517250 rev/day
Decay rate:       1.15e-06 rev/day^2
Epoch rev:             202
Checksum:              299

Satellite: IO-26
Catalog number: 22826
Epoch time:      12348.95936742
Element set:      21
Inclination:      098.5897 deg
RA of node:       289.4814 deg
Eccentricity:    0.0009780
Arg of perigee:   103.7949 deg
Mean anomaly:     256.4323 deg
Mean motion:   14.29796406 rev/day
Decay rate:        6.4e-07 rev/day^2
Epoch rev:             229
Checksum:              340

Satellite: GO-32
Catalog number: 25397
Epoch time:      12347.88849459
Element set:     947
Inclination:      098.3866 deg
RA of node:       318.0183 deg
Eccentricity:    0.0002174
Arg of perigee:   108.7533 deg
Mean anomaly:     251.3889 deg
Mean motion:   14.23312162 rev/day
Decay rate:       1.27e-06 rev/day^2
Epoch rev:           74944
Checksum:              337

Satellite: NO-44
Catalog number: 26931
Epoch time:      12348.25064952
Element set:     210
Inclination:      067.0536 deg
RA of node:       018.8133 deg
Eccentricity:    0.0004842
Arg of perigee:   261.8763 deg
Mean anomaly:     098.1786 deg
Mean motion:   14.29868500 rev/day
Decay rate:       1.13e-06 rev/day^2
Epoch rev:           58484
Checksum:              311

Satellite: SO-50
Catalog number: 27607
Epoch time:      12347.85246711
Element set:     939
Inclination:      064.5572 deg
RA of node:       111.3017 deg
Eccentricity:    0.0069110
Arg of perigee:   211.7289 deg
Mean anomaly:     147.9655 deg
Mean motion:   14.72676298 rev/day
Decay rate:       5.70e-06 rev/day^2
Epoch rev:           53627
Checksum:              323

Satellite: CO-55
Catalog number: 27844
Epoch time:      12347.97180689
Element set:     530
Inclination:      098.7020 deg
RA of node:       353.7559 deg
Eccentricity:    0.0010522
Arg of perigee:   067.4581 deg
Mean anomaly:     292.7715 deg
Mean motion:   14.21128574 rev/day
Decay rate:       1.68e-06 rev/day^2
Epoch rev:           49028
Checksum:              328

Satellite: CO-57
Catalog number: 27848
Epoch time:      12348.07790166
Element set:     479
Inclination:      098.7110 deg
RA of node:       353.2787 deg
Eccentricity:    0.0010416
Arg of perigee:   072.3452 deg
Mean anomaly:     287.8872 deg
Mean motion:   14.20866180 rev/day
Decay rate:       1.21e-06 rev/day^2
Epoch rev:           49023
Checksum:              321

Satellite: AO-51
Catalog number: 28375
Epoch time:      12347.95005987
Element set:     438
Inclination:      098.1733 deg
RA of node:       305.1616 deg
Eccentricity:    0.0082453
Arg of perigee:   219.4903 deg
Mean anomaly:     140.0182 deg
Mean motion:   14.41046009 rev/day
Decay rate:       2.10e-06 rev/day^2
Epoch rev:           44451
Checksum:              285

Satellite: CP3
Catalog number: 31129
Epoch time:      12348.44659848
Element set:     338
Inclination:      097.8868 deg
RA of node:       345.7294 deg
Eccentricity:    0.0099627
Arg of perigee:   285.8064 deg
Mean anomaly:     073.2171 deg
Mean motion:   14.53381896 rev/day
Decay rate:       7.09e-06 rev/day^2
Epoch rev:           30001
Checksum:              343

Satellite: CO-65
Catalog number: 32785
Epoch time:      12348.08887742
Element set:     495
Inclination:      097.7784 deg
RA of node:       044.7246 deg
Eccentricity:    0.0014142
Arg of perigee:   192.9890 deg
Mean anomaly:     167.0960 deg
Mean motion:   14.83453053 rev/day
Decay rate:      1.073e-05 rev/day^2
Epoch rev:           25028
Checksum:              337

Satellite: PRISM
Catalog number: 33493
Epoch time:      12348.90718766
Element set:     346
Inclination:      098.1923 deg
RA of node:       134.1577 deg
Eccentricity:    0.0019396
Arg of perigee:   075.7152 deg
Mean anomaly:     284.6228 deg
Mean motion:   14.84956073 rev/day
Decay rate:      1.637e-05 rev/day^2
Epoch rev:           21041
Checksum:              324

Satellite: SOHLA-1
Catalog number: 33496
Epoch time:      12348.93432676
Element set:     914
Inclination:      098.1181 deg
RA of node:       099.6626 deg
Eccentricity:    0.0006276
Arg of perigee:   181.9400 deg
Mean anomaly:     178.1778 deg
Mean motion:   14.70139417 rev/day
Decay rate:       1.91e-06 rev/day^2
Epoch rev:           20865
Checksum:              326

Satellite: SO-67
Catalog number: 35870
Epoch time:      12348.95873910
Element set:     603
Inclination:      097.2138 deg
RA of node:       018.3518 deg
Eccentricity:    0.0000381
Arg of perigee:   242.0905 deg
Mean anomaly:     234.6626 deg
Mean motion:   15.25426373 rev/day
Decay rate:      3.122e-05 rev/day^2
Epoch rev:           18000
Checksum:              288

Satellite: TISAT-1
Catalog number: 36799
Epoch time:      12348.83658704
Element set:     619
Inclination:      098.0499 deg
RA of node:       066.4221 deg
Eccentricity:    0.0013753
Arg of perigee:   313.1834 deg
Mean anomaly:     046.8226 deg
Mean motion:   14.82645672 rev/day
Decay rate:      1.094e-05 rev/day^2
Epoch rev:           13110
Checksum:              314

Satellite: STUDSAT
Catalog number: 36801
Epoch time:      12348.95470335
Element set:     547
Inclination:      098.0571 deg
RA of node:       068.2259 deg
Eccentricity:    0.0011488
Arg of perigee:   294.6491 deg
Mean anomaly:     065.3526 deg
Mean motion:   14.86282985 rev/day
Decay rate:      3.635e-05 rev/day^2
Epoch rev:           13120
Checksum:              319

Satellite: FO-69
Catalog number: 37227
Epoch time:      12324.39082420
Element set:    0341
Inclination:      071.9700 deg
RA of node:       329.4329 deg
Eccentricity:    0.0015671
Arg of perigee:   026.5333 deg
Mean anomaly:     333.6607 deg
Mean motion:   14.77273675 rev/day
Decay rate:       9.49e-06 rev/day^2
Epoch rev:           05901
Checksum:              306

